Location: Sigmaringen
(48.0900°N, 9.2120°E)
Time: 11:56:15
(UTC+02:00)

ISS - Visible Passes

Search period start: 20 May 2018 00:00
Search period end: 30 May 2018 00:00
Orbit: 402 x 407 km, 51.6° (Epoch: 20 May)

Date Brightness Start Highest point End Pass type
(mag) Time Alt. Az. Time Alt. Az. Time Alt. Az.
20 May -1.5 00:06:25 16° ENE 00:06:25 16° ENE 00:07:11 10° ENE visible
20 May -2.7 01:38:58 24° WNW 01:40:34 44° N 01:43:43 10° ENE visible
20 May -3.1 03:14:09 10° WNW 03:17:23 55° NNE 03:20:36 10° E visible
20 May -3.4 04:50:44 10° WNW 04:53:49 40° SSW 04:56:54 10° SE visible
20 May -3.7 23:08:37 10° SW 23:11:47 48° SSE 23:14:57 10° ENE visible
21 May -3.0 00:45:04 10° W 00:48:17 51° NNW 00:51:30 10° ENE visible
21 May -2.8 02:21:56 10° WNW 02:25:06 46° N 02:28:17 10° E visible
21 May -3.9 03:58:27 10° WNW 04:01:43 65° SSW 04:04:57 10° SE visible
21 May -3.0 22:16:48 10° SSW 22:19:42 29° SE 22:22:35 10° E visible
21 May -3.5 23:52:46 10° WSW 23:56:01 66° NNW 23:59:17 10° ENE visible
22 May -2.6 01:29:39 10° WNW 01:32:48 42° N 01:35:57 10° ENE visible
22 May -3.9 03:06:15 10° WNW 03:09:31 84° NNE 03:12:48 10° ESE visible
22 May -2.5 04:43:11 10° W 04:45:42 21° SW 04:48:13 10° S visible
22 May -3.9 23:00:30 10° WSW 23:03:47 88° SSE 23:07:04 10° ENE visible
23 May -2.6 00:37:20 10° WNW 00:40:29 43° N 00:43:37 10° ENE visible
23 May -3.4 02:14:02 10° WNW 02:17:17 61° NNE 02:20:31 10° E visible
23 May -3.2 03:50:40 10° W 03:53:39 33° SW 03:56:37 10° SSE visible
23 May -3.8 22:08:22 10° SW 22:11:35 57° SSE 22:14:48 10° ENE visible
23 May -2.8 23:44:58 10° W 23:48:09 48° N 23:51:21 10° ENE visible
24 May -2.9 01:21:47 10° WNW 01:24:58 49° N 01:27:49 12° E visible
24 May -2.7 02:58:18 10° WNW 03:00:12 30° W 03:00:12 30° W visible
24 May -3.2 22:52:35 10° W 22:55:50 60° NNW 22:59:04 10° ENE visible
25 May -2.6 00:29:29 10° WNW 00:32:38 43° N 00:35:35 11° ENE visible
25 May -2.8 02:06:02 10° WNW 02:08:09 37° WNW 02:08:09 37° WNW visible
25 May -3.7 22:00:16 10° WSW 22:03:32 82° NNW 22:06:50 10° ENE visible
25 May -2.6 23:37:08 10° WNW 23:40:16 42° N 23:43:25 10° ENE visible
26 May -3.6 01:13:47 10° WNW 01:17:03 68° NNE 01:17:03 68° NNE visible
26 May -2.7 22:44:43 10° W 22:47:54 46° N 22:51:05 10° ENE visible
27 May -3.1 00:21:31 10° WNW 00:24:43 52° NNE 00:26:10 28° ENE visible
27 May -1.5 01:58:03 10° WNW 01:58:47 15° WNW 01:58:47 15° WNW visible
27 May -3.0 21:52:19 10° W 21:55:32 55° NNW 21:58:46 10° ENE visible
27 May -2.7 23:29:11 10° WNW 23:32:21 44° N 23:35:24 11° E visible
28 May -3.0 01:05:43 10° WNW 01:08:01 42° W 01:08:01 42° W visible
28 May -2.6 22:36:48 10° WNW 22:39:57 42° N 22:43:06 10° ENE visible
29 May -3.8 00:13:25 10° WNW 00:16:42 76° NNE 00:17:18 55° E visible
29 May -3.2 23:21:06 10° WNW 23:24:21 56° NNE 23:26:37 18° E visible
